Home   Weather   Cheltenham   Past weeks

Flag for United Kingdom Past Weather in Cheltenham, England, United Kingdom — Yesterday and Last 2 Weeks

Now
45 °F

Sunny.


Feels Like: 39 °F
Forecast: 28 / 38 °F
Wind: 10 mph from East

Location: Staverton Private

Current Time: Dec 4, 2016 at 2:25:49 pm

Latest Report: Dec 4, 2016 at 1:50 pm


Visibility: 10 mi

Pressure: 30.18 "Hg

Humidity: 66%

Dew Point: 34 °F

Location of CheltenhamLocation

Past Weather in Cheltenham — Graph

°F

Cheltenham Temperature Yesterday

Maximum temperature yesterday: 46 °F (at 11:20 am)
Minimum temperature yesterday: 39 °F (at 8:50 am)
Average temperature yesterday: 44 °F

High & Low Weather Summary for the Past Weeks

 TemperatureHumidityPressure
High52 °F (Nov 21, 5:20 pm)100% (Nov 20, 8:50 am)30.60 "Hg (Nov 20, 8:50 am)
Low21 °F (Nov 30, 8:20 am)43% (Nov 28, 2:50 pm)29.00 "Hg (Nov 21, 2:20 pm)
Average42 °F87%30.10 "Hg
* Reported Nov 19 1:20 pm — Dec 4 1:20 pm, Cheltenham, Weather by CustomWeather, © 2016

Note: Actual official high and low records may vary slightly from our data, if they occured in-between our weather recording intervals... More about our weather records

Advertising

Cheltenham Weather History for the Previous 24 Hours

Scroll right to see more
 ConditionsComfort  
Time TempWeatherWind HumidityBarometerVisibility
1:20 pm
Sun, Dec 4
43 °FSunny.6 mph71%30.18 "Hg10 mi
12:50 pm43 °FSunny.8 mph71%30.18 "Hg10 mi
12:20 pm43 °FSunny.13 mph76%30.21 "Hg10 mi
11:50 am43 °FPassing clouds.6 mph76%30.21 "HgN/A
11:20 am41 °FSunny.5 mph87%30.21 "Hg10 mi
10:50 am37 °FSunny.5 mph93%30.24 "Hg10 mi
10:20 am36 °FSunny.3 mph100%30.24 "Hg10 mi
9:50 am34 °FSunny.No wind100%30.24 "Hg10 mi
9:20 am32 °FSunny.No wind100%30.24 "Hg10 mi
8:50 am28 °FSunny.No wind100%30.24 "Hg10 mi
5:50 pm
Sat, Dec 3
41 °FPassing clouds.6 mph76%30.27 "HgN/A
5:20 pm41 °FPassing clouds.5 mph76%30.24 "HgN/A
4:50 pm41 °FPassing clouds.5 mph81%30.24 "HgN/A
4:20 pm41 °FPassing clouds.5 mph87%30.24 "HgN/A
3:50 pm43 °FScattered clouds.6 mph81%30.24 "HgN/A
3:20 pm45 °FScattered clouds.6 mph76%30.24 "HgN/A
2:50 pm46 °FScattered clouds.5 mph71%30.24 "HgN/A
2:20 pm46 °FScattered clouds.5 mph76%30.24 "HgN/A
Weather by CustomWeather, © 2016

See weather overviewHow to use our weather pages